GEFSNGP_850_meantemp_276.txt.gz
Temperature
21 21 20 20 20 20 21 21 21 22 21 21 21 20 19 18 17 16 16 15 15 14 14 14 13 13 13 13 13 13 13 13 13 13 13 12 12 12 12 12 12 12 12 12
20 20 20 19 20 20 20 20 20 21 21 21 20 19 18 18 17 16 15 15 14 14 14 13 13 13 13 12 12 12 12 12 12 12 12 12 12 12 12 12 12 12 12 11
20 20 19 19 20 20 20 20 20 20 20 20 19 19 18 17 16 16 15 14 14 14 14 13 13 13 12 12 12 12 12 12 12 12 12 12 11 11 11 11 11 11 11 11
19 19 18 20 20 19 19 19 20 20 19 19 18 17 17 16 16 15 15 14 14 14 13 13 13 12 12 12 12 11 11 11 11 11 11 11 11 11 11 11 11 11 11 11
18 18 19 19 19 19 19 19 19 19 18 17 17 17 17 16 15 15 14 14 14 13 13 13 12 12 12 12 11 11 11 11 11 11 11 11 11 11 11 11 11 10 10 10
17 17 18 19 19 18 19 19 18 18 17 17 16 18 18 15 14 14 14 13 13 13 13 12 12 12 12 11 11 11 11 11 11 11 11 11 11 10 10 10 10 10 10 10
17 17 18 19 17 17 18 19 17 17 17 16 16 17 15 14 14 14 13 13 13 13 12 12 12 12 11 11 11 11 11 11 10 10 10 10 10 10 10 10 10 10 10 10
17 17 17 17 16 17 18 17 16 16 16 15 15 14 14 13 13 13 13 13 12 12 12 12 11 11 11 11 11 11 10 10 10 10 10 10 10 10 9 9 9 9 9 9
17 17 17 16 16 16 15 16 15 15 15 14 14 13 13 13 13 13 12 12 12 12 12 11 11 11 11 11 10 10 10 10 10 10 10 10 9 9 9 9 9 9 9 9
16 16 15 14 14 14 14 14 14 14 13 13 13 13 12 12 12 12 12 12 12 11 11 11 11 10 10 10 10 10 10 10 9 9 9 9 9 9 9 9 9 9 8 8
15 16 14 14 13 13 13 13 13 13 13 13 12 12 12 12 12 12 11 11 11 11 11 11 10 10 10 10 10 9 9 9 9 9 9 9 9 9 9 8 8 8 8 8
16 16 15 15 13 13 13 13 12 12 12 12 12 12 12 11 11 11 11 11 10 10 10 10 10 10 10 10 10 9 9 9 9 9 9 8 8 8 8 8 8 8 8 8
14 13 13 13 12 12 12 12 12 12 12 11 11 11 11 11 11 10 10 10 10 10 10 10 10 10 9 9 9 9 9 9 9 8 8 8 8 8 8 8 8 8 8 8
12 12 12 12 11 11 11 11 11 11 11 11 11 10 10 10 10 10 10 10 10 9 10 10 9 9 9 9 9 9 9 8 8 8 8 8 8 8 8 7 7 7 7 7
11 11 11 11 11 11 11 11 10 10 10 10 10 10 10 10 9 9 9 9 9 9 9 9 9 9 9 9 9 8 8 8 8 8 8 8 8 7 7 7 7 7 7 7
11 11 10 10 10 10 10 10 10 10 10 10 9 9 9 9 9 9 9 9 9 9 9 9 9 9 9 8 8 8 8 8 8 8 8 7 7 7 7 7 6 6 6 6
10 10 10 10 10 10 10 10 10 10 9 9 9 9 9 8 8 8 8 8 8 8 8 8 8 8 8 8 8 8 7 7 7 7 7 7 7 7 6 6 6 6 6 6
10 10 10 10 10 9 9 9 9 9 9 9 8 8 8 8 8 8 8 8 8 8 8 8 8 8 7 7 7 7 7 7 7 7 6 6 6 6 6 6 6 6 6 6
9 9 9 9 9 9 9 9 9 9 9 8 8 8 8 7 7 7 7 7 7 7 7 7 7 7 7 7 7 7 6 6 6 6 6 6 6 5 5 5 5 5 5 5
9 9 9 9 9 9 8 8 8 8 8 8 8 7 7 7 7 7 7 7 7 7 7 7 7 7 7 7 7 6 6 6 6 6 5 5 5 5 5 5 5 5 5 5
8 8 8 8 8 8 8 8 8 8 7 7 7 7 7 7 6 6 6 6 6 6 6 6 6 6 6 6 6 6 6 6 5 5 5 5 4 4 4 4 4 4 4 4
8 8 8 8 8 7 7 7 7 7 7 7 7 7 6 6 6 6 6 6 6 6 6 6 6 6 6 6 6 6 5 5 5 5 5 4 4 4 4 4 4 4 4 4
8 7 7 7 7 7 7 7 7 7 7 6 6 6 6 6 6 6 5 5 5 5 5 5 5 5 5 5 5 5 5 5 5 4 4 4 4 4 3 3 3 3 3 3
7 7 7 7 7 6 6 6 6 6 6 6 6 6 6 6 5 5 5 5 5 5 5 5 5 5 5 5 5 5 5 4 4 4 4 4 4 3 3 3 3 3 3 3
6 6 6 6 6 6 6 6 6 6 5 5 5 5 5 5 5 5 5 4 4 4 4 4 4 4 4 4 4 4 4 4 4 4 4 3 3 3 3 3 2 3 3 3
6 6 6 6 6 6 6 5 5 5 5 5 5 5 5 4 4 4 4 4 4 4 4 4 4 4 4 4 4 4 4 4 4 3 3 3 3 2 2 2 2 2 2 2
5 5 5 5 5 5 5 5 5 5 5 5 4 4 4 4 4 4 4 4 4 4 3 3 3 3 3 3 3 3 3 3 3 3 3 3 2 2 2 2 2 2 2 2

GEFSNGP_850_meantemp_282.txt.gz
Temperature
23 23 23 23 23 23 23 23 22 22 22 22 22 22 21 21 20 19 19 18 17 17 16 16 15 15 15 14 14 14 13 13 13 13 13 13 13 13 12 12 12 12 12 12
22 23 23 22 22 22 22 22 22 22 22 23 22 22 21 20 20 19 18 18 17 16 16 16 15 15 14 14 13 13 13 13 13 13 12 12 12 12 12 12 12 12 12 12
20 22 22 21 22 22 22 22 22 21 21 22 21 21 20 20 19 18 18 17 16 16 16 15 15 15 14 13 13 13 13 13 12 12 12 12 12 12 12 11 11 12 11 11
20 20 19 21 23 22 22 22 22 22 21 21 21 20 19 19 18 17 17 16 16 15 15 15 15 14 14 13 13 13 12 12 12 12 12 12 11 11 11 11 11 11 11 11
19 19 20 21 22 22 21 21 22 21 21 21 20 20 19 18 17 17 16 16 15 15 15 14 14 14 14 13 13 12 12 12 12 12 11 11 11 11 11 11 11 11 10 10
18 18 19 20 21 21 21 19 20 20 20 20 19 18 17 17 17 16 16 15 15 15 14 14 14 13 13 13 12 12 12 12 11 11 11 11 11 11 10 10 10 10 10 10
18 18 19 20 20 20 19 18 19 20 19 19 18 17 17 17 16 16 15 15 14 14 14 13 13 13 13 12 12 12 11 11 11 11 11 10 10 10 10 10 10 10 10 10
18 17 17 19 19 19 18 19 19 18 18 18 17 17 16 16 15 15 15 14 14 14 13 13 13 13 12 12 12 11 11 11 11 11 10 10 10 10 10 10 10 10 10 9
17 17 18 18 18 18 18 18 18 18 17 17 16 16 16 15 15 14 14 14 13 13 13 13 12 12 12 12 11 11 11 11 11 10 10 10 10 10 9 9 9 9 9 9
17 17 17 17 17 17 17 17 17 16 16 16 15 15 15 14 14 14 13 13 13 13 12 12 12 12 11 11 11 11 11 10 10 10 10 10 9 9 9 9 9 9 9 9
16 17 17 17 16 16 16 16 16 15 15 15 14 14 14 14 14 13 13 13 12 12 12 11 11 11 11 11 11 10 10 10 10 10 10 9 9 9 9 9 9 9 9 9
15 16 16 16 16 16 15 15 15 15 14 14 14 14 14 13 13 13 12 12 12 12 11 11 11 11 11 10 10 10 10 10 9 9 9 9 9 9 8 8 8 8 8 8
16 16 16 15 15 15 14 14 14 14 14 13 13 13 13 13 12 12 12 12 11 11 11 11 10 10 10 10 10 9 9 9 9 9 9 9 8 8 8 8 8 8 8 8
15 15 15 14 14 14 14 14 14 13 13 13 13 12 12 12 12 11 11 11 11 10 10 10 10 10 10 10 9 9 9 9 9 8 8 8 8 8 8 8 7 7 7 7
14 14 14 13 13 13 13 13 13 13 12 12 12 12 12 11 11 11 10 10 10 10 10 10 9 9 9 9 9 9 8 8 8 8 8 8 8 7 7 7 7 7 7 7
13 13 13 13 13 12 12 12 12 12 12 11 11 11 11 11 10 10 10 10 10 10 9 9 9 9 9 9 8 8 8 8 8 8 7 7 7 7 7 7 6 7 6 6
12 12 12 12 12 12 12 12 12 11 11 11 11 10 10 10 10 10 9 9 9 9 9 9 8 8 8 8 8 8 8 8 7 7 7 7 7 6 6 6 6 6 6 6
12 12 12 11 11 11 11 11 11 11 11 10 10 10 10 9 9 9 9 8 8 8 8 8 8 8 8 7 7 7 7 7 7 7 7 7 6 6 6 6 5 5 5 5
11 11 11 11 11 10 10 11 10 10 10 10 9 9 9 9 9 8 8 8 8 8 7 7 7 7 7 7 7 7 7 7 7 7 6 6 6 6 6 5 5 5 5 5
10 10 10 10 10 10 10 10 10 9 9 9 9 9 9 8 8 8 7 7 7 7 7 7 7 7 7 7 6 6 6 6 6 6 6 6 6 5 5 5 5 5 4 4
10 10 9 9 9 9 9 9 9 9 9 9 8 8 8 8 8 7 7 7 7 7 7 7 7 6 6 6 6 6 6 6 6 6 6 5 5 5 5 5 4 4 4 4
9 9 9 9 9 9 9 9 8 8 8 8 8 8 7 7 7 7 7 7 7 7 6 6 6 6 6 6 6 6 6 6 5 5 5 5 5 4 4 4 4 4 4 3
8 8 8 8 8 8 8 8 8 8 8 8 7 7 7 7 7 7 6 6 6 6 6 6 6 6 5 5 5 5 5 5 5 5 5 4 4 4 4 4 4 4 3 3
8 8 8 8 7 7 7 7 7 7 7 7 7 7 7 7 7 7 6 6 6 6 6 5 5 5 5 5 5 5 5 5 4 4 4 4 4 4 4 4 4 3 3 3
7 7 7 7 7 7 7 7 7 7 6 6 6 6 6 6 6 6 6 6 6 5 5 5 5 5 4 4 4 4 4 4 4 4 4 4 4 4 4 3 3 3 3 3
7 7 6 7 7 6 6 6 6 6 6 6 6 6 6 6 5 5 5 5 5 5 4 4 4 4 4 4 4 4 3 3 3 3 3 3 3 3 3 3 3 2 2 2
6 6 6 6 6 6 6 6 6 5 5 5 5 5 5 5 5 5 4 4 4 4 4 4 4 3 3 3 3 3 3 3 3 3 3 3 3 3 3 3 2 2 2 2

GEFSNGP_850_meantemp_288.txt.gz
Temperature
17 17 18 18 18 18 18 16 16 16 16 16 16 16 16 16 17 16 16 16 16 16 15 15 15 15 15 15 14 14 14 13 13 13 13 13 12 12 12 12 12 12 12 11
16 17 17 17 17 18 18 17 16 16 16 16 16 16 16 16 16 16 16 15 15 15 15 15 15 14 14 14 14 14 14 13 13 13 12 12 12 12 12 12 12 11 11 11
15 16 17 16 17 17 17 17 16 16 16 15 15 15 16 16 16 16 16 15 15 15 15 15 14 14 14 14 14 13 13 13 13 12 12 12 12 12 11 11 11 11 11 11
13 15 16 15 16 17 17 16 16 16 15 16 16 16 16 16 16 16 16 15 15 15 15 14 14 14 14 14 13 13 13 13 12 12 12 12 11 11 11 11 11 11 11 11
12 14 14 15 16 17 16 16 15 15 15 15 16 15 15 16 16 16 16 16 15 15 15 14 14 14 14 14 13 13 13 12 12 12 12 11 11 11 11 11 11 10 10 10
12 13 14 15 16 17 16 15 15 15 14 14 14 12 13 15 15 16 16 15 15 15 14 14 14 14 13 13 13 13 12 12 12 12 11 11 11 11 10 10 10 10 10 10
12 12 13 14 15 16 15 14 15 15 15 14 14 14 15 15 15 15 15 15 15 14 14 14 14 13 13 13 12 12 12 12 12 11 11 11 11 10 10 10 10 10 9 9
11 12 12 14 15 14 14 15 15 15 15 15 15 15 15 15 15 15 15 14 14 14 14 13 13 13 13 12 12 12 12 12 11 11 11 10 10 10 10 10 9 9 9 9
11 12 13 14 15 15 15 15 15 15 15 15 15 14 14 14 14 14 14 14 14 13 13 13 13 13 12 12 12 12 11 11 11 11 10 10 10 10 10 9 9 9 9 9
11 11 13 14 15 15 15 15 15 15 15 15 14 14 14 14 14 13 13 13 13 13 13 13 12 12 12 12 11 11 11 11 11 10 10 10 10 9 9 9 9 9 8 8
10 11 12 13 14 14 14 14 14 14 14 14 14 14 13 13 13 13 13 13 13 12 12 12 12 12 12 11 11 11 11 10 10 10 10 9 9 9 9 8 8 8 8 8
10 12 11 13 13 14 14 14 14 14 13 13 13 13 13 13 13 12 12 12 12 12 12 12 11 11 11 11 11 10 10 10 10 9 9 9 9 8 8 8 8 8 8 7
13 13 13 13 13 13 13 13 13 13 13 13 13 13 13 12 12 12 12 12 11 11 11 11 11 11 11 11 10 10 10 9 9 9 9 9 8 8 8 8 7 7 7 7
12 12 12 12 12 12 12 12 12 12 12 12 12 12 12 12 12 12 11 11 11 11 11 11 10 10 10 10 10 9 9 9 9 9 8 8 8 8 7 7 7 7 7 7
12 12 12 12 12 12 12 12 12 12 12 12 12 12 11 11 11 11 11 11 10 10 10 10 10 10 10 9 9 9 9 9 8 8 8 8 7 7 7 7 7 7 6 6
11 12 12 11 11 11 11 11 11 11 11 11 11 11 11 11 11 11 10 10 10 10 10 10 9 9 9 9 9 8 8 8 8 8 7 7 7 7 7 7 6 6 6 6
11 11 11 11 11 11 11 11 11 11 11 11 11 11 10 10 10 10 10 10 10 9 9 9 9 9 9 8 8 8 8 7 7 7 7 7 6 6 6 6 6 6 6 6
11 11 11 11 11 10 10 11 11 10 10 10 10 10 10 10 9 9 9 9 9 9 9 9 8 8 8 8 8 7 7 7 7 7 6 6 6 6 6 6 6 6 6 6
10 10 10 10 10 10 10 10 10 10 10 10 10 10 10 9 9 9 9 9 8 8 8 8 8 8 8 7 7 7 7 7 6 6 6 6 6 6 6 6 5 5 5 5
10 10 10 10 10 10 10 10 10 10 9 9 9 9 9 9 8 8 8 8 8 8 8 7 7 7 7 7 7 7 6 6 6 6 6 6 6 6 5 5 5 5 5 5
9 10 9 9 9 9 9 9 9 9 9 9 9 9 8 8 8 8 8 8 8 7 7 7 7 7 6 6 6 6 6 6 6 5 5 5 5 5 5 5 5 5 4 4
9 9 9 9 9 9 9 9 8 8 8 8 8 8 8 8 7 7 7 7 7 7 6 6 6 6 6 6 6 5 5 5 5 5 5 5 5 5 5 4 4 4 4 4
9 9 8 8 8 8 8 8 8 8 8 8 7 7 7 7 7 7 7 7 7 6 6 6 6 6 5 5 5 5 5 5 5 5 4 4 4 4 4 4 4 4 4 4
8 8 8 8 8 8 7 7 7 7 7 7 7 7 7 7 6 6 6 6 6 6 6 5 5 5 5 5 5 5 5 4 4 4 4 4 4 4 4 4 4 4 3 3
7 7 7 7 7 7 7 7 7 6 6 6 6 6 6 6 6 6 6 6 6 5 5 5 5 5 4 4 4 4 4 4 4 3 3 3 3 3 3 3 3 3 3 3
7 7 7 6 6 6 6 6 6 6 6 6 6 5 5 5 5 5 5 5 5 5 5 5 4 4 4 4 4 4 3 3 3 3 3 3 3 3 3 3 3 3 2 2
6 6 6 6 6 6 6 6 5 5 5 5 5 5 4 4 4 4 4 5 4 4 4 4 4 4 3 3 3 3 3 3 3 2 2 2 2 2 2 2 2 2 2 2

GEFSNGP_850_meantemp_294.txt.gz
Temperature
14 15 15 15 16 15 15 14 14 14 14 14 14 14 14 14 14 14 14 14 14 15 15 15 14 14 14 14 14 14 13 13 13 13 13 12 12 12 12 12 12 11 11 11
14 15 14 15 15 15 14 14 14 14 14 14 14 14 14 14 14 14 14 14 14 14 14 14 14 14 14 14 14 13 13 13 13 12 12 12 12 12 12 12 11 11 11 11
13 14 15 14 14 15 14 14 14 14 14 13 12 13 13 14 14 14 14 14 14 14 14 14 14 14 13 13 13 13 13 13 13 12 12 12 12 12 11 11 11 11 11 11
11 13 14 14 14 14 14 14 13 13 13 13 13 14 14 14 14 14 14 14 14 14 14 14 14 14 13 13 13 13 13 13 12 12 12 12 11 11 11 11 11 11 10 10
10 12 13 13 14 14 14 14 13 13 12 13 13 13 13 14 14 14 14 14 14 14 14 14 14 14 13 13 13 12 12 12 12 12 12 11 11 11 11 10 10 10 10 10
10 12 12 13 14 14 14 13 13 12 12 12 12 11 12 14 14 14 14 14 14 14 14 14 14 13 13 13 13 12 12 12 12 12 11 11 11 11 10 10 10 10 10 10
10 11 11 12 13 14 13 13 14 13 13 12 12 13 14 14 14 14 14 14 14 14 14 14 13 13 12 12 12 12 12 12 11 11 11 11 11 10 10 10 10 10 9 9
9 10 11 12 12 12 12 13 14 13 14 13 13 14 14 14 14 14 14 13 13 13 13 13 13 13 12 12 12 12 12 11 11 11 11 10 10 10 10 10 9 9 9 9
10 11 12 12 12 13 13 13 14 14 14 13 13 13 13 13 13 13 13 13 13 13 12 12 12 12 12 12 12 11 11 11 11 11 10 10 10 10 9 9 9 9 9 9
9 9 11 12 13 13 13 13 13 13 13 13 13 13 13 13 13 13 13 12 12 12 12 12 12 12 11 11 11 11 11 11 10 10 10 10 10 9 9 9 9 8 8 8
8 9 11 12 12 13 13 13 13 13 13 13 13 13 13 13 13 12 12 12 12 12 11 11 11 11 11 11 11 11 10 10 10 10 10 9 9 9 9 9 8 8 8 8
9 10 10 11 12 12 12 12 12 12 12 12 12 12 12 12 12 12 11 11 11 11 11 11 11 11 11 11 10 10 10 10 9 9 9 9 9 9 8 8 8 8 8 8
11 12 11 11 12 12 12 12 12 12 12 12 12 12 12 12 12 11 11 11 11 11 11 11 10 11 11 10 10 10 10 9 9 9 9 8 8 8 8 8 7 7 7 7
11 11 10 11 11 11 11 11 11 11 11 11 11 11 11 11 11 11 11 11 11 11 10 10 10 10 10 10 10 10 9 9 9 9 8 8 8 8 8 7 7 7 7 7
10 10 10 10 10 10 10 10 10 10 10 11 11 11 11 11 11 11 11 10 10 10 10 10 10 10 9 9 9 9 9 9 8 8 8 8 8 7 7 7 7 7 7 6
10 10 10 10 10 10 10 10 10 10 10 10 10 10 10 10 10 10 10 10 10 10 10 10 9 9 9 9 9 8 8 8 8 8 8 7 7 7 7 7 6 6 6 6
9 9 9 9 9 10 10 10 10 10 10 10 10 10 10 10 10 10 10 10 10 9 9 9 9 9 8 8 8 8 8 8 7 7 7 7 7 7 6 6 6 6 6 6
9 9 9 9 9 9 9 9 9 9 9 10 10 9 9 9 9 9 9 9 9 9 9 9 8 8 8 8 8 8 7 7 7 7 7 6 6 6 6 6 6 5 5 5
9 9 9 9 9 9 9 9 9 9 9 9 9 9 9 9 9 9 9 9 8 8 9 8 8 8 8 7 7 7 7 7 6 6 6 6 6 6 5 5 5 5 5 5
9 9 9 9 9 8 8 8 9 9 9 9 8 8 8 8 8 8 8 8 8 8 8 8 7 7 7 7 7 6 6 6 6 6 6 6 5 5 5 5 5 5 4 4
8 8 8 8 8 8 8 8 8 8 8 8 8 8 8 8 8 8 8 7 7 7 7 7 7 7 6 6 6 6 6 6 5 5 5 5 5 5 5 5 4 4 4 4
8 8 8 8 8 8 8 7 7 7 7 7 7 7 7 7 7 7 7 7 7 7 7 7 6 6 6 6 6 5 5 5 5 5 5 4 4 4 4 4 4 4 4 4
7 7 7 7 7 7 7 7 7 7 7 7 7 7 7 7 7 6 6 6 6 6 6 6 6 6 5 5 5 5 5 4 4 4 4 4 4 4 4 4 4 3 3 3
7 7 7 7 7 7 6 6 6 6 6 6 6 6 6 6 6 6 6 6 6 6 6 6 5 5 5 5 4 4 4 4 4 4 4 4 4 3 3 3 3 3 3 3
7 7 6 6 6 6 6 6 6 6 6 6 6 5 5 5 5 5 5 5 5 5 5 5 5 5 4 4 4 4 4 4 4 3 3 3 3 3 3 3 3 3 3 2
6 6 6 6 6 6 6 6 5 5 5 5 5 5 5 5 5 5 5 5 5 5 5 4 4 4 4 4 3 3 3 3 3 3 3 3 2 2 2 2 2 2 2 2
6 6 5 5 5 5 5 5 5 5 5 5 4 4 4 4 4 4 4 4 4 4 4 4 4 3 3 3 3 3 3 3 3 2 2 2 2 2 2 2 2 2 2 2

GEFSNGP_850_meantemp_300.txt.gz
Temperature
20 19 19 19 19 19 19 20 20 20 20 20 20 19 18 17 16 15 15 15 14 14 14 14 14 14 14 14 14 13 13 13 13 13 12 12 12 12 12 12 11 11 11 11
19 19 19 18 19 19 19 19 19 20 20 20 19 18 17 17 16 15 15 15 14 14 14 14 14 14 13 13 13 13 13 13 13 12 12 12 12 11 11 11 11 11 11 11
19 18 18 18 19 19 19 19 19 19 20 19 18 17 17 16 16 15 15 14 14 14 14 14 14 13 13 13 13 13 13 12 12 12 12 12 11 11 11 11 11 11 11 11
18 17 17 19 19 18 18 18 19 19 19 18 17 16 16 15 15 15 14 14 14 13 13 13 13 13 13 13 13 12 12 12 12 12 11 11 11 11 11 11 11 11 10 10
17 17 18 18 18 17 17 18 18 18 17 16 15 16 16 15 14 14 14 14 13 13 13 13 13 13 12 12 12 12 12 12 12 11 11 11 11 11 11 10 10 10 10 10
16 16 17 18 17 16 17 17 17 17 17 16 16 17 17 15 14 13 13 13 13 13 13 13 12 12 12 12 12 12 12 11 11 11 11 11 11 10 10 10 10 10 10 10
16 16 17 17 16 16 17 17 16 16 16 15 16 16 15 14 13 13 13 13 13 13 13 12 12 12 12 12 12 11 11 11 11 11 11 10 10 10 10 10 10 10 10 10
15 15 16 16 15 16 16 15 15 15 14 14 14 13 13 13 13 12 12 13 13 12 12 12 12 12 11 11 11 11 11 11 11 10 10 10 10 10 10 10 9 9 9 9
16 16 15 14 15 14 14 14 14 14 13 13 12 12 12 12 12 12 12 12 12 12 12 12 11 11 11 11 11 11 11 11 10 10 10 10 10 9 9 9 9 9 9 9
14 15 14 13 13 13 13 13 13 12 12 12 12 12 12 12 12 12 11 12 12 11 11 11 11 11 11 11 11 10 10 10 10 10 10 9 9 9 9 9 9 9 8 8
14 15 14 13 12 12 12 12 12 12 12 12 12 12 11 11 11 11 11 11 11 11 11 11 11 11 11 10 10 10 10 10 10 10 9 9 9 9 9 9 9 9 8 8
14 14 14 13 12 12 11 11 11 11 11 11 11 11 11 11 11 11 11 11 11 11 11 11 11 10 10 10 10 10 10 9 10 9 9 9 9 9 9 9 9 8 8 8
12 12 12 12 11 11 11 11 11 11 11 11 11 11 10 11 11 11 11 11 11 11 10 10 10 10 10 10 10 9 9 9 9 9 9 8 8 8 8 8 8 8 8 8
11 11 11 11 11 10 10 10 10 10 10 10 10 10 10 10 10 10 10 10 10 10 10 10 10 10 10 9 9 9 9 9 9 9 8 8 8 8 7 7 7 7 7 7
10 10 10 10 10 10 10 10 10 10 10 10 10 10 10 9 10 10 10 10 10 10 10 9 9 9 9 9 9 9 8 8 8 8 8 7 7 7 7 7 7 7 7 7
10 9 10 10 10 9 9 9 9 9 9 9 9 9 9 9 9 9 9 9 9 9 9 9 9 9 9 9 8 8 8 8 8 8 7 7 7 7 7 6 6 6 6 6
9 9 9 9 9 9 9 9 9 9 9 9 9 9 9 9 9 9 9 9 9 9 9 8 8 8 8 8 8 8 8 8 7 7 7 7 7 7 6 6 6 6 6 6
9 9 9 9 9 9 8 8 8 8 8 8 8 8 8 8 8 8 8 8 8 8 8 8 8 8 8 8 8 8 7 7 7 7 6 6 6 6 6 6 6 6 6 6
8 8 8 8 8 8 8 8 8 8 8 8 8 8 8 8 8 8 8 8 8 8 8 8 8 8 7 7 7 7 7 7 6 6 6 6 6 6 6 6 5 5 5 5
8 8 8 8 8 8 8 8 8 7 8 7 7 7 7 7 7 7 7 7 7 7 7 7 7 7 7 7 7 7 6 6 6 6 6 5 5 5 5 5 5 5 5 5
7 7 7 7 8 8 7 7 7 7 7 7 7 7 7 7 7 7 7 7 7 7 7 7 7 7 7 7 6 6 6 6 5 5 5 5 5 5 5 5 5 5 4 4
7 7 7 7 7 7 7 7 7 7 7 7 6 6 6 6 6 6 6 7 7 7 6 6 6 6 6 6 6 5 5 5 5 5 5 4 4 4 4 4 4 4 4 4
7 7 7 7 7 7 7 7 6 6 6 6 6 6 6 6 6 6 6 6 6 6 6 6 6 6 6 5 5 5 5 5 5 4 4 4 4 4 4 3 3 3 3 3
6 6 6 6 6 6 6 6 6 6 6 6 6 5 5 6 5 5 5 5 5 5 5 5 5 5 5 5 4 4 4 4 4 4 4 4 3 3 3 3 3 3 3 3
6 6 6 6 6 6 6 5 5 5 5 5 5 5 5 5 5 5 5 5 5 4 4 4 4 4 4 4 4 4 4 4 4 3 3 3 3 3 3 3 3 3 3 2
5 5 5 5 5 5 5 5 5 5 4 4 4 4 4 4 4 4 4 4 4 4 4 4 4 4 4 3 3 3 3 3 3 3 2 2 2 2 2 2 2 2 2 2
5 5 5 5 5 5 5 4 4 4 4 4 4 4 4 4 4 4 3 3 3 3 3 3 3 3 3 3 3 3 3 2 2 2 2 2 2 2 2 2 1 1 1 1

GEFSNGP_850_meantemp_306.txt.gz
Temperature
21 21 21 21 21 21 21 21 20 21 21 21 21 20 20 19 19 18 18 17 17 16 16 16 15 15 15 15 14 14 14 14 14 14 13 13 13 13 12 12 12 12 12 12
20 21 21 21 21 21 21 21 21 21 21 21 21 20 20 19 18 18 17 17 17 16 16 15 15 15 15 15 14 14 14 13 13 13 13 13 12 12 12 12 12 11 11 11
19 20 20 19 20 21 21 21 21 20 20 20 20 20 19 18 18 17 17 16 16 16 16 15 15 15 15 14 14 14 13 13 13 13 13 12 12 12 12 11 11 11 11 11
18 19 18 19 21 21 21 21 21 20 20 19 19 19 18 17 17 16 16 16 15 15 15 15 15 15 14 14 14 14 13 13 12 12 12 12 12 12 11 11 11 11 11 11
18 17 18 19 20 20 20 19 20 20 19 19 18 18 17 17 16 16 15 15 15 15 15 15 15 14 14 14 13 13 13 13 12 12 12 12 12 11 11 11 11 11 11 11
17 17 17 18 19 20 19 18 19 19 19 18 18 16 16 16 15 15 15 15 14 14 14 14 14 14 14 13 13 13 12 12 12 12 12 11 11 11 11 11 10 10 10 10
17 17 17 18 18 19 17 17 18 18 18 17 17 16 16 15 15 14 14 14 14 14 14 14 14 13 13 13 13 12 12 12 12 12 11 11 11 11 10 10 10 10 10 10
16 16 16 17 18 17 17 17 17 17 17 16 16 15 15 14 14 14 14 13 13 13 13 13 13 13 13 12 12 12 12 12 11 11 11 11 11 10 10 10 10 10 10 9
16 16 17 17 17 16 16 16 16 16 16 15 15 15 14 14 14 13 13 13 13 13 13 13 13 12 12 12 12 12 11 11 11 11 11 11 10 10 10 10 9 9 9 9
16 16 16 16 16 16 15 15 15 15 15 14 14 14 13 13 13 13 13 12 12 12 12 12 12 12 12 12 11 11 11 11 11 10 10 10 10 10 9 9 9 9 9 9
15 16 16 15 15 15 15 14 14 14 14 14 14 13 13 13 12 12 12 12 12 12 12 12 12 11 11 11 11 11 11 10 10 10 10 10 9 9 9 9 9 9 9 9
14 15 15 15 15 14 14 14 14 13 13 13 13 13 12 12 12 12 12 12 11 12 11 11 11 11 11 11 11 10 10 10 10 10 9 9 9 9 9 9 9 9 9 9
15 14 14 14 14 14 13 13 13 13 13 12 12 12 12 12 12 11 11 11 11 11 11 11 11 11 10 10 10 10 10 10 9 9 9 9 9 9 9 8 8 8 8 8
14 14 13 13 13 13 13 13 12 12 12 12 12 12 11 11 11 11 11 10 10 10 10 10 10 10 10 10 10 10 9 9 9 9 9 9 8 8 8 8 8 8 8 8
13 13 13 13 12 12 12 12 12 12 12 11 11 11 11 11 10 10 10 10 10 10 10 10 10 10 10 9 9 9 9 9 9 9 8 8 8 8 8 7 7 7 7 7
13 13 12 12 12 12 12 12 11 11 11 11 11 10 10 10 10 10 10 9 9 9 9 9 9 9 9 9 9 9 8 8 8 8 8 8 7 7 7 7 7 7 7 7
12 12 12 11 11 11 11 11 11 11 11 10 10 10 10 10 9 9 9 9 9 9 9 9 9 9 9 9 8 8 8 8 8 8 7 7 7 7 7 7 7 7 7 7
11 11 11 11 11 11 10 10 10 10 10 10 10 9 9 9 9 9 9 9 9 9 8 8 8 8 8 8 8 8 8 7 7 7 7 7 6 6 6 6 6 6 6 6
11 10 10 10 10 10 10 10 10 10 9 9 9 9 9 9 8 8 8 8 8 8 8 8 8 8 7 7 7 7 7 7 7 6 6 6 6 6 6 6 6 6 6 6
10 10 10 10 9 9 9 9 9 9 9 9 9 8 8 8 8 8 8 8 8 7 7 7 7 7 7 7 7 6 6 6 6 6 6 5 5 5 5 5 5 5 5 5
9 9 9 9 9 9 9 9 8 8 8 8 8 8 8 8 7 7 7 7 7 7 7 7 6 6 6 6 6 6 6 6 5 5 5 5 5 5 5 4 5 5 5 5
9 9 9 8 8 8 8 8 8 8 8 8 8 7 7 7 7 7 7 6 6 6 6 6 6 6 6 6 5 5 5 5 5 5 5 4 4 4 4 4 4 4 4 4
8 8 8 8 8 8 8 8 8 7 7 7 7 7 7 7 6 6 6 6 6 6 6 6 6 5 5 5 5 5 5 4 4 4 4 4 4 4 4 4 4 4 3 3
8 8 8 8 8 7 7 7 7 7 7 7 7 6 6 6 6 6 5 5 5 5 5 5 5 5 5 5 4 4 4 4 4 4 4 3 3 3 3 3 3 3 3 3
8 7 7 7 7 7 7 7 7 6 6 6 6 6 6 6 5 5 5 5 5 5 5 4 4 4 4 4 4 3 3 3 3 3 3 3 3 3 3 3 3 2 2 2
7 7 7 7 6 6 6 6 6 6 6 5 5 5 5 5 5 4 4 4 4 4 4 4 4 4 3 3 3 3 3 3 3 3 2 2 2 2 2 2 2 2 2 1
6 6 6 6 6 6 6 6 6 5 5 5 5 4 4 4 4 4 4 4 3 3 3 3 3 3 3 3 3 2 2 2 2 2 2 2 2 2 2 1 1 1 1 1